Regional Weather Roundup
Issued by NWS

Home | Current Version | Previous Version | Graphics & Text | Print | Product List | Glossary On
Versions: 1 2 3 4 5 6 7 8 9 10 11 12 13 14 15 16 17 18 19 20 21 22 23 24 25 26 27 28 29 30 31 32 33 34 35 36 37 38 39 40 41 42 43 44 45 46 47 48 49 50
000
ASUS43 KIND 270609
RWRIN

WEATHER ROUNDUP FOR INDIANA
NATIONAL WEATHER SERVICE INDIANAPOLIS IN
200 AM EDT TUE JUN 27 2017

NOTE: "FAIR" INDICATES FEW OR NO CLOUDS BELOW 12,000 FEET WITH NO
SIGNIFICANT WEATHER AND/OR OBSTRUCTIONS TO VISIBILITY.

* - STATION DOES NOT REPORT WEATHER SUCH AS PRECIPITATION OR FOG.

+ - STATION NOT QUALITY CONTROLLED BY THE NATIONAL WEATHER SERVICE.
    USE DATA WITH CAUTION...ESPECIALLY DEWPOINT AND RELATIVE
    HUMIDITY OBSERVATIONS.

INZ001>003-010>013-019-020-270700-
NORTHWEST INDIANA

CITY           SKY/WX    TMP DP  RH WIND       PRES   REMARKS
GARY /AIRPORT/ CLEAR     54  45  72 W5        30.10S
KNOX *+        CLEAR     52  43  71 W5        30.09R
LA PORTE +     CLEAR     54  47  76 CALM      30.09S
6HR MIN TEMP:  52; 6HR MAX TEMP:  62;

MICHIGAN CITY+ PTCLDY    59  50  72 N6        30.09S
MONTICELLO +   CLEAR     53  51  92 CALM      30.10R
6HR MIN TEMP:  53; 6HR MAX TEMP:  61;

VALPARAISO     CLEAR     54  48  80 CALM      30.09S
6HR MIN TEMP:  54; 6HR MAX TEMP:  66;


$$

LMZ046-743>745-270700-
SOUTHERN LAKE MICHIGAN

STATION/POSITION TIME  TEMP    WIND        PRES    WAVE
                       AIR SEA DIR/SP/G            HT
                 (UTC) (F)     (DEG/KT/KT) (MB)    (FT)
BURNS HARBOR     0540   63     320/ 14/ 18 1019.3R
MICHIGAN CITY    0540   61     330/ 17/ 19   N/A
5NW MICH CITY    0600   62 65  330/ 16/ 19   N/A     4

$$

INZ004-005-014>016-021>024-270700-
NORTH CENTRAL INDIANA

CITY           SKY/WX    TMP DP  RH WIND       PRES   REMARKS
GOSHEN         CLEAR     50  44  80 W3        30.07S
6HR MIN TEMP:  50; 6HR MAX TEMP:  67;

LOGANSPORT +   CLEAR     52  46  82 W3        30.10S
PERU/GRISSOM   CLEAR     53  53  99 W3        30.07S
6HR MIN TEMP:  53; 6HR MAX TEMP:  59; 6HR PCP:  0.01;

ROCHESTER +    CLEAR     55  50  82 W3        30.08F
SOUTH BEND     MOCLDY    52  49  89 W7        30.08S
6HR MIN TEMP:  50; 6HR MAX TEMP:  63;

WARSAW +       CLEAR     50  45  81 CALM      30.08S

$$

INZ006>009-017-018-025>027-270700-
NORTHEAST INDIANA

CITY           SKY/WX    TMP DP  RH WIND       PRES   REMARKS
AUBURN +       CLEAR     52  45  76 CALM      30.07S
FORT WAYNE     PTCLDY    56  47  71 NW7       30.07R
6HR MIN TEMP:  56; 6HR MAX TEMP:  59;

HUNTINGTON +   CLEAR     53  51  96 W3        30.07S
6HR MIN TEMP:  52; 6HR MAX TEMP:  57;

KENDALLVILLE + CLEAR     52  46  82 CALM      30.07R

$$

INZ028-029-035-036-043>045-051>053-270700-
WEST CENTRAL INDIANA

CITY           SKY/WX    TMP DP  RH WIND       PRES   REMARKS
CRAWFORDSVL +  CLEAR     49  49 100 W3        30.11S
6HR MIN TEMP:  49; 6HR MAX TEMP:  56;

GREENCASTLE +  CLEAR     52  46  82 CALM      30.12R
LAFAYETTE      CLEAR     50  50 100 CALM      30.10S
6HR MIN TEMP:  51; 6HR MAX TEMP:  58;

TERRE HAUTE    PTCLDY    54  50  86 S3        30.12S
6HR MIN TEMP:  54; 6HR MAX TEMP:  69;


$$

INZ030>032-037>040-046>048-054>057-064-065-270700-
CENTRAL INDIANA

CITY           SKY/WX    TMP DP  RH WIND       PRES   REMARKS
CP ATTERBURY + CLEAR     52  50  93 W3        30.12R
FRANKFORT +    PTCLDY    55  53  94 W3        30.12R
6HR MIN TEMP:  55; 6HR MAX TEMP:  60;

GREENWOOD *+   PTCLDY    57  49  74 W5        30.12R
INDIANAPOLIS   CLEAR     54  49  83 W7        30.11R
6HR MIN TEMP:  54; 6HR MAX TEMP:  69; 6HR PCP: TRACE;

-EAGLE CREEK   CLEAR     58  50  75 NW8       30.10S
6HR MIN TEMP:  57; 6HR MAX TEMP:  68; 6HR PCP: TRACE;

KOKOMO +       CLEAR     55  50  83 NW5       30.10R
6HR MIN TEMP:  55; 6HR MAX TEMP:  59; 6HR PCP: TRACE;

MARION +       CLEAR     54  52  94 CALM      30.09R
MT COMFORT *+  CLEAR     54  50  87 W8        30.11R
SHELBYVILLE    CLEAR     58  49  72 W7        30.10R
6HR MIN TEMP:  57; 6HR MAX TEMP:  71;

ZIONSVILLE +   CLEAR     53  51  94 W5        30.11S
6HR MIN TEMP:  52; 6HR MAX TEMP:  56; 6HR PCP:  0.05;


$$

INZ033-034-041-042-049-050-058-059-270700-
EAST CENTRAL INDIANA

CITY           SKY/WX    TMP DP  RH WIND       PRES   REMARKS
MUNCIE         CLEAR     55  51  86 W6        30.09R
6HR MIN TEMP:  55; 6HR MAX TEMP:  63; 6HR PCP:  0.02;

RICHMOND +     CLEAR     52  48  87 W6        30.10S

$$

INZ060-061-067>069-081>083-085>088-270700-
SOUTHWEST INDIANA

CITY           SKY/WX    TMP DP  RH WIND       PRES   REMARKS
EVANSVILLE     CLOUDY    62  55  77 CALM      30.12F
6HR MIN TEMP:  61; 6HR MAX TEMP:  70;

HUNTINGBURG *+ CLOUDY    58  56  93 CALM      30.12F
6HR MIN TEMP:  58; 6HR MAX TEMP:  68;

WASHINGTON +   CLEAR     54  52  94 CALM      30.12S
6HR MIN TEMP:  54; 6HR MAX TEMP:  66;


$$

INZ062-063-066-070>080-084-089>092-270700-
SOUTH CENTRAL AND SOUTHEAST INDIANA

CITY           SKY/WX    TMP DP  RH WIND       PRES   REMARKS
BEDFORD +      CLEAR     55  48  76 CALM      30.11
BLOOMINGTON    CLOUDY    55  50  83 CALM      30.12R
6HR MIN TEMP:  53; 6HR MAX TEMP:  66;

MADISON *+     PTCLDY    55  54  94 CALM      30.13S
NORTH VERNON + CLEAR     54  52  94 CALM      30.12
SEYMOUR +      PTCLDY    55  54  94 CALM      30.11S

$$




USA.gov is the U.S. government's official web portal to all federal, state and local government web resources and services.